Hourly Data Report for September 11, 2017

All times are specified in Local Standard Time (LST). Add 1 hour to adjust for Daylight Saving Time where and when it is observed.

ST. STEPHEN
NEW BRUNSWICK

45°12'36.600" N
67°15'10.300" W
26.10 m
8104935
71607
WSS

Download Data

Hourly Data (September 2017)
Hourly Data Report for September 11, 2017
Temp Definition
°C
Dew Point Temp Definition
°C
Rel Hum Definition
%
Wind Dir Definition
10's deg

Wind Spd Definition
km/h
Visibility Definition
km
Stn Press Definition
kPa
Hmdx Definition


Wind Chill Definition


Weather Definition


TIME
00:00 12.3 8.3 77 31 8   101.88     LegendNANA
01:00 12.1 8.0 76 30 7   101.83     LegendNANA
02:00 11.9 8.0 77 29 5   101.78     LegendNANA
03:00 11.1 7.8 81 30 5   101.71     LegendNANA
04:00 11.6 8.2 80 30 5   101.67     LegendNANA
05:00 12.1 8.5 79 30 6   101.64     LegendNANA
06:00 12.1 8.4 78 30 8   101.63     LegendNANA
07:00 12.2 8.7 79 29 5   101.68     LegendNANA
08:00 14.1 9.2 73 32 8   101.70     LegendNANA
09:00 16.8 10.2 65 33 12   101.68     LegendNANA
10:00 19.0 10.7 59 34 11   101.65     LegendNANA
11:00 20.4 10.7 54 30 12   101.60     LegendNANA
12:00 22.4 11.8 51 33 12   101.54 25   LegendNANA
13:00 23.0 11.0 47 35 17   101.50 25   LegendNANA
14:00 24.1 11.3 45 35 11   101.40 26   LegendNANA
15:00 24.0 11.3 45 35 15   101.32 26   LegendNANA
16:00 24.3 12.1 46 33 11   101.25 27   LegendNANA
17:00 23.8 12.5 49 33 11   101.25 26   LegendNANA
18:00 22.5 12.9 55 33 4   101.24 25   LegendNANA
19:00 18.6 13.2 71   0   101.24     LegendNANA
20:00 16.9 13.0 78 31 4   101.21     LegendNANA
21:00 15.6 12.5 82 31 5   101.22     LegendNANA
22:00 15.4 12.4 82 29 5   101.23     LegendNANA
23:00 14.0 11.7 86 31 4   101.23     LegendNANA

Notes on Data Quality.

Legend

  • E = Estimated
  • M = Missing
  • NA = Not Available
  • ‡ = Partner data that is not subject to review by the National Climate Archives
Date modified: